GFSNIL_sfc_30mbdewp_003.txt.gz
Dewpoint
25 21 18 16 14 11 11 11 12 14 13 13 14 13 14 16 16 16 17 19 20 20
18 16 14 12 11 11 10 8 10 12 11 11 11 11 12 12 13 14 14 16 19 19
13 10 9 9 8 9 9 9 10 10 9 9 9 9 10 11 12 12 12 14 16 17
10 8 7 6 6 6 7 7 8 8 8 8 8 8 9 9 10 10 12 14 15 16
9 8 6 6 6 6 6 7 8 8 8 8 8 9 9 8 9 8 10 13 14 15
8 8 7 7 7 7 7 7 8 8 9 9 10 10 9 9 6 10 13 14 15 16
9 9 8 9 9 8 8 9 10 10 10 11 10 11 11 8 12 15 16 17 18 18
10 10 10 10 10 9 10 11 11 11 12 12 12 10 11 15 17 19 19 19 18 17
10 10 9 10 9 9 10 11 11 12 12 14 11 10 14 17 20 20 20 19 17 17
9 9 9 9 8 9 9 10 11 11 11 10 9 11 14 18 20 21 20 18 16 16
8 7 7 7 7 8 9 10 11 10 9 9 9 11 14 18 21 19 18 16 16 16
6 6 6 6 7 9 10 11 10 9 9 8 7 11 15 20 20 18 17 17 18 19
7 7 6 6 8 10 11 10 8 8 7 6 7 12 17 19 19 19 18 19 22 21
6 5 5 8 11 13 11 9 8 6 6 6 10 14 16 18 19 19 20 23 21 20

GFSNIL_sfc_30mbdewp_006.txt.gz
Dewpoint
23 20 18 15 15 13 13 12 14 15 14 14 14 14 14 15 16 15 17 16 16 19
17 15 13 12 13 13 12 10 12 13 12 12 12 12 12 12 13 14 14 14 16 16
11 10 10 10 9 9 9 10 10 10 10 10 10 10 10 12 13 12 12 13 13 14
10 9 8 8 8 7 8 8 9 9 9 9 10 10 10 11 11 10 11 11 11 14
10 9 8 7 8 8 7 8 9 10 10 10 11 11 11 11 11 11 10 12 14 16
10 9 9 9 9 9 9 9 10 11 11 11 12 13 12 12 12 13 15 16 18 19
10 10 10 10 11 10 10 11 12 13 12 13 14 14 13 12 14 16 18 20 21 20
11 11 11 12 12 11 11 12 13 13 13 14 14 13 13 15 17 18 19 21 21 21
11 10 10 11 10 10 11 12 12 12 13 14 12 12 14 16 17 18 20 20 21 19
10 10 10 9 9 9 9 10 11 12 12 11 10 12 14 15 16 19 20 20 19 17
8 8 8 8 8 8 9 11 12 12 11 10 9 11 12 14 18 19 20 19 18 18
7 7 7 7 7 8 11 12 12 10 9 8 7 11 12 16 18 19 19 19 19 21
7 7 6 7 7 11 14 13 11 10 8 9 7 11 14 17 17 17 19 20 22 23
7 6 6 8 11 14 13 11 10 8 7 7 9 13 16 18 18 19 20 22 23 22

GFSNIL_sfc_30mbdewp_012.txt.gz
Dewpoint
21 19 17 15 14 13 12 13 13 12 11 11 11 12 12 13 13 13 13 13 14 15
17 15 13 13 12 11 12 11 10 10 10 10 11 11 12 12 12 13 14 13 15 15
13 12 11 10 8 8 9 9 9 9 10 11 12 12 12 13 14 13 13 14 13 15
10 9 8 7 7 8 8 9 9 10 11 12 12 13 13 13 14 13 14 13 15 17
9 8 8 8 8 9 9 10 10 12 12 13 13 14 14 14 14 14 13 15 17 19
9 9 9 9 10 10 10 10 12 12 13 13 14 15 15 15 15 15 16 17 18 20
10 10 10 11 11 11 11 11 12 13 13 14 15 14 14 16 16 17 17 18 20 20
11 11 12 11 11 11 11 12 12 12 13 14 14 10 17 18 17 17 17 18 19 20
12 11 11 10 10 9 10 10 12 13 13 13 11 15 17 18 17 16 16 17 19 20
11 10 10 9 8 8 8 11 13 13 12 11 11 15 17 19 19 17 18 18 19 19
10 8 8 8 7 7 10 12 13 12 12 11 10 15 18 21 20 19 19 19 19 20
8 7 7 6 6 8 11 13 13 12 11 9 11 15 19 21 20 19 19 20 20 23
8 7 6 6 8 10 13 13 12 10 10 11 10 14 19 20 19 19 20 21 25 25
7 6 6 9 11 12 12 12 10 10 10 10 12 16 19 19 20 20 23 25 22 20

GFSNIL_sfc_30mbdewp_015.txt.gz
Dewpoint
26 24 22 20 17 14 13 13 13 11 10 10 11 12 12 13 13 14 14 13 14 15
20 18 16 14 13 13 12 11 10 10 10 11 12 12 13 13 13 14 14 14 15 14
15 14 13 12 10 10 9 9 9 10 11 12 13 13 13 14 15 14 14 15 14 15
11 10 9 8 8 8 8 9 10 11 12 13 13 14 14 14 14 14 15 15 15 17
9 8 8 8 8 9 8 10 11 12 13 13 14 15 14 13 14 15 15 16 17 18
9 9 9 9 10 10 10 11 12 13 13 14 14 14 14 14 16 16 17 17 18 18
9 10 10 11 11 11 11 11 12 13 13 14 14 13 13 17 18 18 18 18 18 19
11 11 12 11 11 11 11 11 12 13 13 14 12 10 19 20 19 18 17 18 18 19
12 12 11 10 9 9 10 11 13 13 13 12 11 16 20 21 22 19 19 18 19 19
12 11 10 9 8 7 9 12 13 12 12 11 11 17 19 21 22 20 20 19 19 19
11 9 8 7 6 8 10 12 12 12 11 10 10 18 19 21 21 20 20 20 20 20
9 7 7 6 7 9 11 12 12 12 11 10 13 17 19 21 20 19 19 20 21 23
8 6 5 6 10 11 13 12 11 11 11 14 12 16 20 20 19 19 20 25 25 22
7 6 7 10 12 12 12 11 11 12 13 13 14 18 19 20 20 19 21 18 21 21

GFSNIL_sfc_30mbdewp_018.txt.gz
Dewpoint
25 23 21 21 18 15 13 13 12 11 10 11 12 12 13 14 14 14 15 14 14 15
24 22 20 17 14 14 12 11 10 10 10 12 13 13 13 14 14 15 15 15 16 15
19 17 14 13 12 10 9 9 9 11 12 12 13 14 14 14 15 15 15 16 16 15
14 12 10 9 9 8 9 9 11 12 12 13 14 14 13 13 14 15 16 17 16 17
10 9 8 8 8 9 9 11 12 13 13 13 14 14 13 13 15 16 17 17 17 17
9 9 9 9 10 10 11 12 12 13 13 13 13 12 12 15 17 18 18 18 18 18
10 10 9 11 11 11 11 11 12 13 13 13 12 11 12 19 20 20 19 19 19 19
11 11 12 11 11 12 11 12 14 13 13 13 11 9 19 22 22 21 19 19 19 19
12 12 11 10 10 10 11 13 13 12 12 11 11 16 21 22 22 21 20 19 20 20
13 11 10 9 8 9 11 13 12 12 11 10 11 18 21 21 22 21 20 20 20 20
12 10 9 7 7 9 11 12 12 11 11 11 12 19 20 21 21 20 20 20 20 20
10 8 7 6 8 10 12 12 11 11 11 12 15 19 20 22 21 20 20 20 21 23
8 6 5 8 10 12 12 11 11 11 13 15 14 18 20 21 20 20 19 20 21 22
6 6 9 11 12 12 11 11 12 13 15 15 16 18 20 20 20 20 20 18 22 22

GFSNIL_sfc_30mbdewp_024.txt.gz
Dewpoint
38 34 30 25 24 22 21 20 18 16 15 15 15 16 17 17 17 17 16 17 17 16
31 29 27 25 23 22 20 17 15 15 14 15 15 15 15 14 14 15 16 17 18 18
28 27 25 21 20 19 16 14 15 14 14 14 14 15 15 14 14 14 15 16 18 17
26 22 21 19 18 17 14 14 14 13 13 13 13 13 12 12 14 15 17 18 18 18
21 19 19 16 15 14 13 13 12 12 12 13 12 11 10 12 15 17 18 18 19 18
18 18 15 14 13 13 13 12 13 13 13 12 12 11 10 13 16 18 19 19 19 18
17 15 14 13 13 13 12 13 13 13 13 12 11 11 12 17 19 20 19 20 20 19
15 15 14 13 13 12 13 13 13 13 13 12 11 9 18 20 21 20 19 19 19 17
15 15 14 13 13 14 14 14 13 13 14 14 10 18 22 23 20 19 19 17 17 17
15 14 13 12 13 14 13 14 13 12 11 11 12 19 22 22 20 19 18 18 17 17
14 12 11 11 12 12 13 13 11 11 11 11 12 20 21 22 20 18 18 18 18 18
12 10 10 10 11 12 12 11 11 10 11 11 12 17 21 22 18 16 16 17 17 18
10 9 9 11 12 12 11 10 10 11 12 14 12 15 20 21 17 16 16 16 17 17
9 9 11 12 12 12 11 10 10 11 12 12 13 14 19 20 20 18 17 17 16 17

GFSNIL_sfc_30mbdewp_027.txt.gz
Dewpoint
47 43 37 33 30 29 27 26 26 23 21 21 20 19 20 20 19 19 19 19 20 18
45 38 34 30 27 25 26 25 22 20 19 18 18 17 17 16 16 16 17 19 20 20
38 33 30 29 28 26 23 21 20 19 18 17 16 16 16 16 16 15 16 18 18 19
32 31 29 25 24 22 19 19 18 18 17 15 15 14 14 13 14 15 17 18 19 19
31 26 25 22 20 19 18 17 16 15 14 14 13 12 11 12 14 16 17 18 19 19
23 22 20 20 20 18 18 16 14 14 13 13 13 12 11 12 14 17 18 19 19 19
22 23 21 20 17 17 15 15 14 14 13 13 12 12 12 16 19 20 20 19 19 19
22 22 20 18 16 15 15 14 14 13 14 13 12 10 18 20 20 20 19 19 18 18
18 17 17 16 15 16 15 14 14 14 16 17 11 19 22 24 21 19 18 18 17 17
21 19 17 16 16 16 15 14 13 13 12 12 12 18 22 23 22 19 18 17 17 17
18 17 16 16 15 14 14 14 12 12 11 12 13 18 21 22 21 17 17 17 17 17
14 14 14 14 13 13 12 12 11 11 12 12 11 17 19 22 19 15 15 16 16 17
13 13 13 13 12 12 12 11 11 11 12 11 12 12 16 20 18 16 16 16 17 17
12 12 13 12 12 12 11 11 11 11 11 11 11 13 16 19 19 18 19 19 17 17

GFSNIL_sfc_30mbdewp_030.txt.gz
Dewpoint
52 44 40 38 34 33 33 32 29 27 26 25 23 23 23 23 21 21 21 20 21 21
46 41 38 37 35 35 33 29 27 25 23 22 21 21 21 20 18 17 19 19 20 21
42 38 36 35 34 31 28 25 23 22 21 19 19 18 18 17 16 16 18 19 18 20
37 34 32 32 29 27 26 23 21 20 19 18 17 16 16 15 16 16 17 19 19 20
32 31 30 27 24 25 25 20 19 18 17 16 15 13 13 13 13 16 17 19 19 20
30 27 24 22 24 24 20 18 17 16 15 14 14 12 11 13 14 17 18 20 20 20
25 23 21 22 21 19 17 16 16 15 15 15 13 13 13 16 19 21 21 21 21 20
23 23 22 21 19 19 18 16 15 15 14 14 14 15 19 22 23 21 20 19 19 19
22 22 23 24 25 26 18 15 16 15 18 17 12 20 23 24 23 22 20 18 19 18
25 27 27 27 23 17 15 16 15 15 14 13 18 21 22 23 23 22 21 19 18 18
30 29 27 25 20 22 20 16 13 12 12 13 17 20 20 22 22 20 18 18 17 17
32 30 26 21 15 15 13 12 12 12 12 13 14 20 18 20 21 19 16 17 17 19
29 24 16 14 13 13 14 12 12 13 12 15 11 14 16 20 20 19 19 19 20 20
15 14 14 13 13 11 11 11 11 11 12 11 12 13 15 17 19 20 21 21 20 19

GFSNIL_sfc_30mbdewp_033.txt.gz
Dewpoint
51 49 46 43 39 39 36 34 33 32 30 29 26 25 24 23 22 21 21 20 20 20
48 47 45 40 38 38 36 33 32 31 30 28 25 24 23 21 19 19 21 20 21 21
46 44 40 37 36 35 33 31 29 29 28 26 22 22 21 19 18 17 19 20 19 19
41 39 38 37 36 34 31 29 28 28 28 24 19 18 18 18 17 16 17 19 19 20
38 37 36 35 33 30 28 27 27 24 21 18 17 16 15 14 15 15 17 18 19 20
34 34 32 29 28 28 27 26 24 22 22 18 14 13 13 14 15 17 18 19 20 20
29 27 26 26 27 25 24 21 21 19 16 16 14 13 14 17 20 22 21 21 21 21
27 27 25 25 24 24 23 21 22 22 19 15 15 18 22 24 23 22 21 20 19 19
23 22 23 23 24 26 24 22 20 18 18 15 22 28 28 25 23 22 21 20 20 19
25 26 29 29 30 31 31 30 28 26 27 29 27 23 23 24 23 21 20 19 18 18
30 32 31 30 30 30 29 28 30 28 18 15 21 22 22 23 21 20 18 17 17 18
32 31 31 31 31 32 31 26 14 13 13 13 22 20 19 21 20 19 19 19 20 21
34 34 33 33 30 16 14 12 12 13 12 15 11 16 17 19 19 19 19 20 21 22
33 25 15 13 13 12 12 12 11 11 11 11 12 13 15 16 18 18 19 21 20 20

GFSNIL_sfc_30mbdewp_036.txt.gz
Dewpoint
57 55 53 51 49 48 45 42 41 39 37 33 31 29 27 24 22 22 20 19 19 19
55 52 50 48 46 44 43 40 39 37 34 31 29 27 26 24 22 22 21 21 21 21
52 50 47 44 44 42 40 37 37 36 32 29 28 28 27 23 21 20 21 21 20 20
48 46 43 43 42 41 39 36 33 30 29 28 26 24 25 24 23 18 19 20 19 19
44 43 42 41 40 38 35 31 30 28 27 29 30 33 33 28 17 17 17 18 19 20
42 42 41 39 37 32 30 28 28 28 28 29 30 28 23 21 18 17 18 19 20 21
38 37 35 31 30 28 28 28 28 28 27 27 26 23 18 20 22 24 25 26 26 24
30 30 29 28 27 25 25 26 26 25 26 26 26 26 28 30 30 30 29 25 21 20
29 28 27 25 27 27 28 29 29 27 27 29 32 34 34 32 30 24 20 19 20 20
31 29 30 31 30 30 31 30 30 29 30 33 34 35 32 28 22 20 19 18 17 17
32 32 32 32 33 33 33 32 32 33 33 31 29 26 24 24 20 19 18 18 19 19
33 34 34 33 33 33 33 33 32 28 24 22 27 25 22 22 20 18 18 20 20 22
35 34 34 33 33 32 30 25 20 16 14 19 18 21 19 22 20 18 18 19 21 22
34 33 32 28 26 22 16 15 12 12 12 13 12 13 16 17 18 18 19 20 19 20

GFSNIL_sfc_30mbdewp_039.txt.gz
Dewpoint
54 58 57 56 55 53 52 51 48 45 43 41 37 35 33 32 30 26 22 19 18 18
51 56 56 55 54 52 51 48 45 44 41 38 37 34 31 29 27 25 23 21 22 21
53 55 55 53 51 49 46 45 44 42 40 36 32 29 29 27 26 24 25 25 21 21
52 51 50 48 46 44 42 41 41 40 36 31 28 27 26 27 28 29 28 28 26 20
47 46 45 44 43 42 41 40 38 34 29 27 28 29 29 32 32 31 30 28 26 21
44 44 43 42 42 39 38 34 32 30 30 31 31 32 31 30 28 28 27 23 20 21
42 42 42 40 37 35 33 31 30 30 32 31 30 30 29 28 27 28 29 30 30 30
34 33 32 32 31 31 30 29 29 29 29 29 29 30 32 32 33 33 33 32 31 28
31 30 29 28 28 29 29 29 29 29 30 32 33 34 35 35 33 32 31 28 23 19
32 33 32 32 32 32 31 31 31 32 33 34 36 37 35 33 31 28 20 18 17 18
34 33 33 33 33 33 33 32 33 33 33 32 34 35 34 30 22 18 18 18 19 19
35 35 34 33 33 34 33 33 32 32 32 31 33 31 29 22 19 18 18 19 20 22
35 34 33 33 33 33 32 31 30 27 24 29 28 24 22 23 20 18 18 19 20 22
34 33 33 33 32 26 21 17 14 13 13 13 14 16 18 19 18 19 20 20 20 20

GFSNIL_sfc_30mbdewp_042.txt.gz
Dewpoint
49 59 59 58 58 56 54 54 53 52 50 48 46 44 42 40 38 34 32 27 23 20
43 47 56 57 57 56 55 54 52 50 49 48 45 41 40 38 33 31 29 24 23 24
46 47 51 55 55 54 53 51 49 48 46 43 41 39 37 32 30 27 27 27 24 24
49 50 52 53 51 49 47 46 46 44 41 40 37 35 32 28 28 28 28 28 28 27
47 47 48 47 45 44 43 43 41 39 36 34 31 30 29 29 30 31 31 30 30 30
44 44 44 43 42 42 41 40 37 33 31 31 32 33 33 33 33 32 32 31 28 27
43 43 43 40 38 35 34 33 32 32 32 32 32 31 30 29 29 30 32 32 33 33
36 37 36 34 34 34 34 33 33 31 31 32 32 32 32 33 33 33 33 33 32 32
31 32 32 32 31 32 32 32 32 32 33 33 34 34 34 34 33 33 32 30 30 30
33 33 33 32 32 32 32 33 34 34 34 35 37 37 37 35 31 30 28 26 19 20
34 34 34 34 33 33 34 33 33 33 34 34 36 36 34 31 29 23 19 19 19 20
34 34 34 32 32 33 33 32 32 32 32 32 33 34 31 24 19 17 18 20 20 23
35 34 33 33 32 32 32 31 31 30 32 33 32 32 29 21 19 18 18 20 20 22
33 33 32 31 31 30 29 26 19 18 17 17 17 20 23 23 19 20 20 20 19 20

GFSNIL_sfc_30mbdewp_045.txt.gz
Dewpoint
42 46 58 60 59 59 58 57 57 57 57 55 53 50 49 47 46 44 41 35 29 26
46 45 45 52 58 59 58 57 56 55 55 53 51 49 48 47 45 42 39 33 29 25
49 49 48 48 52 55 56 55 54 53 52 51 49 47 46 44 41 38 34 31 27 27
47 48 49 51 51 52 51 51 51 49 48 46 45 44 42 38 35 32 29 28 28 28
45 46 47 47 47 47 48 47 47 45 44 42 40 38 35 32 31 30 30 31 30 30
44 44 45 44 43 43 43 43 41 40 37 34 32 32 31 31 32 32 33 33 32 31
39 40 40 39 37 36 35 34 33 33 33 33 33 33 33 32 32 32 32 33 33 33
34 35 36 35 36 35 35 34 34 34 33 33 32 32 33 33 33 33 33 33 33 32
33 33 33 34 35 35 34 34 34 34 35 35 36 36 35 34 34 33 32 31 31 31
34 34 33 33 34 34 35 35 35 36 36 37 37 37 36 34 32 31 30 29 28 28
35 34 34 34 34 34 34 34 34 34 35 35 36 36 35 33 30 28 27 24 25 25
33 32 32 32 32 33 32 32 32 32 32 32 33 33 27 23 20 20 21 23 24 24
34 32 31 31 31 31 31 31 31 31 32 33 33 31 30 21 18 18 19 21 20 21
32 32 32 31 31 30 29 28 24 23 21 20 23 26 26 23 20 20 20 19 19 20

GFSNIL_sfc_30mbdewp_048.txt.gz
Dewpoint
45 43 42 48 55 57 57 58 59 58 59 59 58 57 56 55 53 51 49 48 45 38
46 47 46 46 46 50 54 57 58 58 58 58 58 56 55 53 52 51 50 49 45 38
47 48 49 50 49 48 49 52 55 56 56 57 55 54 52 51 51 49 48 46 39 31
46 47 48 49 50 51 52 52 53 53 54 54 52 50 49 48 47 45 40 36 33 32
45 46 47 47 48 48 50 50 51 50 50 49 48 47 45 41 39 35 32 32 32 31
40 42 42 43 44 44 45 45 45 44 43 42 40 38 36 33 32 32 32 33 32 33
37 38 37 37 37 37 37 37 36 36 35 35 34 33 33 33 33 33 33 33 33 33
35 36 35 36 35 35 35 35 35 34 33 33 33 33 34 34 34 34 34 34 34 33
34 34 34 36 36 36 36 37 37 36 37 36 36 36 36 34 34 33 32 31 31 32
34 34 34 35 35 36 36 37 37 38 38 37 38 37 36 35 33 32 31 31 31 30
34 34 33 33 33 33 33 32 34 33 34 34 36 36 34 33 30 29 28 28 28 26
34 33 33 31 31 32 32 32 31 32 32 31 32 33 31 28 24 24 24 24 25 24
34 33 32 31 31 31 32 31 32 32 33 33 29 29 24 19 18 19 20 20 18 20
33 32 32 32 32 32 30 29 26 22 22 24 27 27 25 23 20 19 17 17 17 19

GFSNIL_sfc_30mbdewp_051.txt.gz
Dewpoint
43 43 43 41 42 48 52 54 56 60 60 60 59 59 59 59 58 56 54 53 53 48
45 46 47 47 46 45 46 50 53 56 58 59 59 59 59 58 57 56 54 53 53 50
44 46 46 47 48 49 49 49 49 52 55 57 57 58 57 56 55 54 53 52 51 46
44 45 46 46 47 48 49 50 51 52 52 52 56 54 54 53 52 52 49 46 42 36
41 42 42 43 44 45 46 48 49 49 50 51 50 49 49 47 46 44 40 37 35 34
39 39 39 39 39 39 39 40 42 42 43 43 42 41 38 37 36 35 35 35 34 34
37 37 37 37 37 36 37 36 36 36 36 36 35 35 35 34 34 35 35 35 35 35
36 36 37 36 36 37 36 36 36 35 35 35 35 34 35 35 35 35 34 34 34 35
35 35 36 36 36 37 38 38 39 38 38 38 38 37 36 35 34 33 32 31 32 33
34 34 35 35 35 34 34 34 34 34 34 35 37 37 36 34 32 31 31 31 31 31
34 34 34 34 33 33 33 33 32 32 32 33 34 35 34 32 31 30 31 30 28 26
35 34 33 32 32 33 33 32 32 32 31 31 32 32 29 27 27 26 24 24 24 22
35 34 33 33 32 32 32 32 32 32 33 29 27 25 23 19 19 19 19 19 17 20
34 33 33 33 33 32 30 27 23 23 25 26 25 26 26 23 20 18 17 17 18 19

GFSNIL_sfc_30mbdewp_054.txt.gz
Dewpoint
45 46 47 47 47 46 46 47 52 55 58 60 60 60 60 60 60 60 59 56 55 50
45 46 46 47 48 49 50 50 51 52 54 58 60 59 59 59 59 59 58 56 56 55
44 45 46 47 47 48 49 50 51 51 52 54 58 58 58 58 58 57 56 55 54 51
41 42 42 42 42 44 45 47 48 49 49 51 53 54 54 55 54 54 52 50 49 43
39 39 39 39 39 39 39 39 41 43 44 44 44 43 45 46 45 45 42 40 39 37
37 37 37 37 37 37 37 36 36 37 36 36 37 37 37 38 38 38 38 37 37 36
36 37 37 37 37 37 36 36 36 35 35 35 35 35 35 36 36 35 35 36 35 35
36 36 36 37 37 38 38 38 38 37 37 37 37 36 36 36 35 34 34 35 35 35
35 35 35 35 35 35 35 35 35 36 36 37 37 37 36 34 33 32 32 32 32 34
34 34 35 35 35 34 34 34 34 34 34 35 37 37 36 34 32 31 31 31 32 31
35 34 34 34 34 33 33 32 32 31 32 34 35 35 35 33 31 31 31 31 28 27
34 34 33 32 32 32 32 31 31 31 30 29 27 26 26 27 26 25 25 24 22 21
34 34 33 33 32 32 31 31 31 31 29 27 26 26 24 21 21 19 19 18 20 22
33 32 32 32 31 29 27 24 23 24 24 24 25 25 25 24 22 20 18 18 18 22

GFSNIL_sfc_30mbdewp_057.txt.gz
Dewpoint
46 46 47 47 48 49 49 50 51 52 53 56 59 59 60 59 59 59 59 58 57 53
44 44 45 46 47 48 48 49 49 50 51 52 57 58 59 58 58 59 58 58 57 56
41 41 41 41 40 41 43 46 47 47 48 50 52 53 55 56 56 56 56 55 55 53
39 39 39 38 38 38 38 39 40 43 43 44 44 45 48 49 50 52 50 47 47 43
38 38 37 37 36 37 37 37 37 37 37 37 38 39 40 42 42 43 42 41 41 39
37 37 37 37 37 37 37 36 36 36 36 36 36 36 37 37 38 38 38 38 38 37
36 36 36 37 38 38 38 37 37 37 37 36 36 36 36 36 36 36 36 36 36 36
36 36 37 36 36 37 36 37 37 37 37 37 37 36 35 35 35 34 34 35 36 37
35 35 35 35 35 35 35 35 34 35 36 37 37 36 36 34 33 33 33 32 33 34
35 35 35 35 35 34 33 33 33 34 36 36 37 37 36 34 32 31 31 31 31 31
35 34 35 34 33 33 32 31 32 32 33 34 33 32 33 31 29 29 29 28 27 25
35 34 33 32 32 32 32 30 29 29 26 25 26 26 27 26 24 23 22 20 22 22
35 34 33 32 32 30 30 30 30 29 27 28 26 26 24 21 18 17 17 18 19 23
33 33 32 31 30 28 27 24 26 23 23 24 25 25 25 25 23 22 19 19 19 23

GFSNIL_sfc_30mbdewp_060.txt.gz
Dewpoint
45 46 46 47 47 47 48 49 49 49 50 52 55 57 58 59 58 58 58 57 57 57
41 41 41 41 41 42 44 46 47 48 48 49 50 52 56 57 57 56 57 56 56 56
39 39 39 39 38 38 38 40 43 44 44 44 44 45 48 49 49 51 51 51 52 51
38 38 37 37 37 37 37 37 37 38 38 39 39 40 42 43 44 45 45 43 43 42
37 37 37 37 37 37 37 36 36 36 36 37 37 38 38 39 39 40 40 40 40 39
37 36 37 37 38 38 37 37 37 37 36 36 36 36 37 37 37 36 36 36 37 36
36 36 37 37 38 37 38 37 37 37 37 37 36 36 35 36 36 36 36 36 36 35
36 36 36 36 36 36 36 36 36 36 36 36 35 35 34 34 35 35 34 35 36 38
35 35 36 36 35 35 34 34 36 37 37 37 36 38 36 34 33 33 32 32 32 32
35 35 35 35 34 33 33 34 34 35 36 35 36 36 35 33 31 30 29 29 28 28
35 35 35 34 33 32 31 32 31 29 28 28 29 29 29 29 26 25 23 22 22 22
35 34 33 32 31 32 29 28 27 26 25 25 26 27 27 23 22 20 18 21 23 23
35 34 32 32 30 29 29 29 29 27 25 27 25 27 24 21 18 17 17 18 19 25
34 33 32 30 29 29 28 28 25 22 22 24 25 24 25 25 23 21 20 20 21 23

GFSNIL_sfc_30mbdewp_063.txt.gz
Dewpoint
44 44 44 44 45 44 46 47 47 47 48 49 50 55 57 57 57 57 56 56 56 56
40 40 40 39 39 39 40 41 44 44 44 44 45 47 51 52 51 53 53 52 52 53
38 38 38 38 38 37 37 38 38 39 39 40 41 42 44 44 46 47 45 45 46 45
37 37 37 37 37 37 37 36 37 37 37 38 38 39 41 41 41 42 42 42 41 40
37 37 37 37 37 37 36 36 36 36 36 36 37 37 37 38 38 38 38 38 38 38
36 36 37 38 38 38 38 37 37 37 36 36 36 36 36 36 36 36 36 36 36 36
36 36 36 37 36 36 36 36 36 36 36 35 35 35 35 35 36 36 36 37 37 36
36 36 36 36 36 36 35 36 37 37 36 36 36 35 34 34 34 34 34 34 34 35
35 36 36 35 35 34 34 35 36 36 36 37 37 37 35 33 32 32 30 29 28 30
35 35 35 34 34 33 33 34 34 33 31 32 34 33 33 30 28 25 24 23 21 22
35 35 34 33 32 32 32 30 27 26 26 27 29 28 28 26 20 19 21 21 21 22
35 34 33 32 32 31 28 26 26 25 25 25 26 26 25 21 18 17 17 18 20 25
35 34 32 32 30 28 28 28 26 24 24 27 25 27 26 24 21 19 19 19 20 24
35 33 32 30 28 28 28 28 23 21 21 23 24 23 25 25 23 21 19 20 21 22

GFSNIL_sfc_30mbdewp_066.txt.gz
Dewpoint
43 42 42 41 42 42 43 44 44 45 45 45 46 49 54 56 56 57 56 55 55 55
39 39 39 39 39 38 38 39 40 41 41 41 43 45 47 48 50 50 50 49 50 50
38 38 37 37 38 37 37 37 37 38 38 39 40 42 43 43 44 45 45 45 44 44
37 37 37 37 37 37 36 36 37 37 37 37 38 38 39 40 41 42 41 41 41 41
37 37 37 37 37 37 37 37 37 37 36 36 36 37 37 37 37 37 37 37 37 38
36 37 37 37 37 37 36 36 36 36 35 35 35 35 36 36 36 37 36 36 35 35
36 36 37 37 36 36 36 36 36 36 36 35 34 34 35 36 36 35 35 36 37 37
36 36 36 36 36 35 36 37 37 36 37 36 36 35 34 34 34 33 32 32 32 33
36 36 35 35 34 35 35 36 36 35 37 37 36 35 34 32 30 27 25 23 24 27
36 36 35 35 34 34 34 32 30 30 30 30 31 30 29 27 22 20 20 20 22 25
36 35 34 33 33 33 31 27 26 26 27 28 28 27 26 23 19 20 21 22 23 24
35 34 33 32 32 31 27 26 25 25 25 25 26 26 24 19 18 17 18 19 22 25
35 34 32 32 30 28 27 26 24 24 24 27 25 27 27 23 20 18 19 20 21 24
35 33 32 31 28 28 28 27 22 20 21 22 24 23 25 27 23 22 20 20 20 22

GFSNIL_sfc_30mbdewp_069.txt.gz
Dewpoint
43 42 42 41 42 41 41 42 42 43 43 43 44 47 51 54 54 55 55 55 55 56
40 40 39 39 39 39 38 39 39 40 41 41 42 44 46 48 50 49 49 49 49 49
38 38 38 38 38 37 37 38 38 38 39 39 40 42 43 44 45 45 45 45 45 44
37 38 37 37 37 37 37 37 37 37 37 38 38 39 40 41 42 42 42 41 41 41
37 37 37 37 37 37 37 37 37 36 36 36 37 37 37 38 38 38 38 38 38 38
36 37 38 37 37 36 36 36 36 36 35 35 36 36 37 37 37 37 37 36 36 36
36 37 37 37 37 36 36 36 36 36 35 35 35 36 36 36 36 36 36 36 37 36
36 37 37 36 36 36 37 37 37 37 36 36 36 35 34 34 34 33 32 31 31 32
36 36 36 35 35 36 36 36 36 36 36 36 36 36 34 31 28 26 26 26 27 28
36 36 35 35 35 34 34 32 32 32 32 32 32 30 28 25 23 22 22 23 26 27
36 35 35 34 34 33 31 29 28 28 29 29 28 26 24 25 23 23 23 25 25 25
36 34 34 33 33 30 27 26 26 26 26 27 27 25 23 20 19 19 19 20 24 26
35 34 33 33 32 28 27 26 26 26 26 28 27 28 26 21 18 18 18 20 20 25
35 34 33 32 29 28 27 25 23 22 22 22 24 25 27 27 23 21 20 19 19 21

GFSNIL_sfc_30mbdewp_072.txt.gz
Dewpoint
45 45 44 44 44 43 43 43 43 43 44 44 45 47 50 53 54 56 55 55 55 56
42 43 42 42 42 41 40 40 40 41 42 42 43 45 47 50 51 51 50 50 50 49
40 40 40 40 40 39 39 39 39 40 40 41 42 43 45 47 47 48 47 47 46 47
39 39 39 39 39 38 38 38 38 39 39 39 40 41 42 43 44 44 44 44 43 42
38 39 39 38 38 38 38 38 38 37 37 38 38 39 40 40 41 41 41 40 40 40
38 38 38 38 38 37 37 37 37 37 37 37 38 38 39 38 38 38 38 37 37 37
37 38 38 38 38 37 37 37 37 37 36 37 37 37 37 37 37 37 37 37 37 36
37 38 37 37 37 37 37 37 37 36 36 36 36 36 36 36 36 36 35 34 33 34
37 37 37 37 36 37 37 37 37 37 36 36 36 36 35 34 32 32 31 30 30 28
37 37 36 36 36 36 35 35 35 36 35 34 33 31 29 27 27 28 28 29 28 27
36 36 36 35 35 34 33 33 33 31 30 29 26 26 25 26 29 29 28 27 24 24
36 36 35 34 34 33 31 31 30 30 31 31 27 25 24 19 18 19 19 22 24 23
36 35 35 34 33 31 31 30 29 30 30 27 25 26 24 20 16 15 16 17 18 26
36 35 35 34 32 30 29 28 28 26 26 26 26 28 29 26 20 18 17 16 15 18

GFSNIL_sfc_30mbdewp_075.txt.gz
Dewpoint
46 45 45 45 45 44 44 44 44 44 44 44 44 45 47 50 52 54 54 54 54 55
43 44 43 43 43 42 42 40 40 41 42 43 43 44 45 48 49 51 51 51 50 50
41 41 41 41 40 40 39 39 40 40 41 41 41 42 44 46 48 48 48 48 47 47
39 39 39 39 39 39 39 39 39 39 39 39 40 41 42 43 44 45 45 45 44 43
39 39 39 39 39 39 39 39 38 38 38 38 39 39 40 41 42 42 42 42 41 41
39 39 39 39 38 38 38 38 38 37 37 37 38 39 39 39 39 39 39 39 38 38
38 39 39 38 38 38 38 38 38 37 37 37 37 38 38 38 38 38 38 38 37 37
38 38 38 38 38 38 38 37 37 37 37 37 37 36 37 37 37 37 35 34 34 34
38 38 38 38 37 38 38 37 37 37 36 37 37 37 36 36 35 34 33 32 31 27
38 37 37 37 37 37 37 37 37 36 36 36 34 33 32 31 31 31 30 30 29 26
37 37 37 36 36 36 35 35 35 34 33 31 29 27 27 28 29 29 29 27 24 24
37 37 36 36 36 35 33 33 32 31 31 30 27 26 25 19 19 19 20 23 24 23
37 37 36 35 35 33 33 32 32 31 31 28 25 25 24 21 16 16 16 17 19 26
37 36 36 35 33 32 31 30 29 28 27 26 25 26 27 25 19 17 16 16 15 19

GFSNIL_sfc_30mbdewp_081.txt.gz
Dewpoint
46 47 47 47 47 46 46 44 43 43 44 44 44 44 45 46 48 51 52 50 51 52
46 45 44 44 43 43 42 40 41 41 42 42 42 43 44 45 47 48 51 50 50 50
44 44 43 42 41 40 40 40 40 40 40 40 41 41 42 44 46 46 47 47 47 47
42 41 41 40 40 40 39 39 39 39 39 39 39 40 41 42 42 44 45 44 44 44
40 40 39 39 39 39 39 39 38 38 38 38 39 39 39 40 41 42 42 42 41 41
39 39 39 39 39 38 38 38 38 38 37 38 38 39 39 39 39 38 38 38 38 39
39 39 39 39 38 38 38 38 38 37 37 37 37 38 38 38 38 38 37 37 36 36
39 39 39 38 38 38 38 37 37 37 37 37 37 37 38 38 38 36 35 34 33 33
39 38 38 38 37 37 38 37 37 37 37 37 37 38 38 38 36 34 32 30 28 28
38 38 38 38 37 37 37 37 37 37 37 37 36 36 37 36 34 33 31 28 26 25
38 38 38 37 36 36 36 36 37 36 36 34 33 34 35 34 30 29 29 28 28 28
38 37 37 36 36 36 35 35 35 35 32 30 29 30 29 25 24 25 24 24 24 28
38 37 36 36 35 35 34 34 33 32 31 28 26 27 24 23 20 19 19 24 25 28
38 37 36 36 36 34 34 33 32 31 31 30 27 26 25 22 17 17 17 17 18 22

GFSNIL_sfc_30mbdewp_087.txt.gz
Dewpoint
54 54 55 55 54 52 50 48 47 45 45 44 44 44 44 44 45 47 48 49 51 51
52 49 51 50 50 50 48 45 44 43 43 42 42 42 42 43 43 46 47 49 49 49
46 46 46 46 46 45 42 42 41 41 41 41 41 41 41 41 43 44 45 47 47 46
44 44 43 43 42 41 41 41 40 41 40 39 39 39 39 40 41 41 42 44 44 43
43 42 41 41 40 40 40 40 39 39 38 38 39 39 39 39 40 40 41 42 43 42
41 40 40 39 40 40 39 39 38 38 38 38 38 38 38 38 39 39 39 39 40 40
40 40 39 39 39 39 38 38 38 37 37 37 37 38 38 38 37 37 37 37 37 37
39 39 39 38 38 38 38 38 38 37 37 37 37 37 37 38 38 37 37 36 35 35
39 39 38 38 38 37 37 37 37 37 37 36 37 37 39 39 38 37 35 34 31 31
39 38 38 38 37 37 36 36 36 36 36 36 37 38 39 40 38 36 34 32 29 24
39 38 38 37 37 36 36 36 36 36 36 36 36 37 38 39 35 34 32 29 25 25
38 38 37 37 36 35 35 35 35 36 35 35 35 36 37 36 32 32 30 28 27 27
38 38 37 36 35 34 34 35 34 35 35 35 33 33 35 32 27 27 25 24 24 30
38 37 37 36 35 34 34 34 34 35 34 32 32 29 32 29 20 19 20 21 23 27

GFSNIL_sfc_30mbdewp_090.txt.gz
Dewpoint
58 58 58 57 57 55 54 51 48 46 45 45 44 44 44 44 44 45 47 48 49 50
54 53 54 55 54 53 51 48 46 44 43 43 42 42 42 42 42 44 46 47 49 49
47 49 51 50 51 50 46 45 43 42 42 41 41 41 40 40 42 43 43 46 47 46
45 45 45 46 45 43 42 42 41 41 41 40 40 39 39 39 40 41 41 43 44 44
43 43 43 42 41 41 40 40 40 39 39 39 39 39 39 39 39 39 40 41 42 42
42 41 41 40 40 40 40 39 38 38 38 38 38 38 38 38 38 38 38 38 39 40
41 40 40 39 39 39 38 38 38 37 37 37 37 37 38 38 37 37 37 37 37 37
40 39 39 38 38 38 38 38 37 37 37 37 37 37 37 38 38 37 37 36 35 35
39 39 38 38 37 37 37 37 37 37 36 36 37 38 39 39 39 38 36 35 32 31
39 38 38 37 37 36 36 36 36 36 36 36 36 38 39 39 39 37 36 34 32 26
39 38 37 37 37 36 36 36 36 36 36 36 36 37 38 40 37 35 34 33 29 25
39 38 37 37 36 35 35 35 35 35 35 35 35 36 38 38 34 34 32 30 27 25
39 38 37 37 36 34 34 35 34 34 35 35 35 35 36 36 31 31 29 26 25 29
39 38 37 36 35 34 34 34 34 34 34 34 34 32 35 35 25 27 25 22 22 25

GFSNIL_sfc_30mbdewp_093.txt.gz
Dewpoint
60 60 59 59 58 57 56 54 53 52 50 47 46 46 45 45 45 46 47 47 49 49
55 56 56 57 57 56 55 53 50 47 45 45 44 44 43 43 43 45 46 47 48 49
50 52 53 54 54 53 50 48 45 44 43 43 42 42 42 42 43 43 44 46 46 47
46 48 50 51 50 47 46 44 43 42 41 41 40 40 40 40 41 41 41 43 44 45
44 44 45 45 45 44 43 42 41 41 40 39 39 39 39 39 40 40 40 41 43 43
43 43 43 42 42 41 41 40 39 39 39 39 39 39 39 39 39 39 39 39 40 41
42 42 41 41 40 40 39 39 38 38 38 38 38 38 38 38 38 38 38 38 38 38
41 40 40 39 39 39 38 38 38 37 37 37 37 37 38 38 38 38 37 37 36 36
40 40 39 39 38 38 38 38 37 37 37 37 37 39 40 39 38 39 38 36 34 34
40 39 38 38 37 37 37 37 37 37 37 37 37 39 39 40 39 39 37 36 34 29
40 39 38 37 37 37 36 36 36 36 36 36 37 38 39 40 39 37 36 35 33 29
40 39 38 37 37 36 36 36 36 36 36 36 36 38 38 38 36 35 34 32 29 26
40 39 38 37 36 35 35 35 35 35 35 36 35 37 37 37 34 33 32 29 27 31
39 39 38 37 36 35 35 35 35 34 34 35 36 35 36 37 32 31 30 28 26 24

GFSNIL_sfc_30mbdewp_096.txt.gz
Dewpoint
61 61 60 61 61 60 58 58 58 58 58 56 55 53 52 50 48 48 49 48 49 48
59 60 60 60 60 59 58 58 57 56 54 50 48 47 46 45 45 46 47 48 48 48
54 56 57 58 58 58 57 55 54 51 49 46 45 44 44 43 44 44 45 46 46 47
47 51 53 55 56 54 52 50 48 46 44 43 42 42 42 42 43 42 43 43 45 45
45 47 49 51 51 50 50 47 44 43 42 41 40 40 40 40 41 41 41 42 43 43
45 45 45 47 47 47 46 44 43 41 41 40 40 39 39 39 39 40 40 41 41 42
44 44 44 44 44 44 43 42 41 40 39 39 39 39 39 39 39 39 39 40 40 40
43 43 42 42 42 41 41 40 40 39 39 39 38 38 39 39 39 39 39 39 38 39
43 42 41 41 41 40 40 39 39 38 38 38 37 39 40 39 38 38 38 38 37 37
42 41 41 40 40 40 39 39 39 39 38 39 38 40 40 40 39 39 39 38 37 34
42 42 41 40 39 39 39 39 39 38 38 38 38 40 40 40 41 40 40 39 37 33
41 42 41 40 40 40 39 39 39 39 38 39 38 40 39 40 39 38 37 36 35 32
41 41 41 41 40 40 39 39 39 38 38 38 38 39 39 38 37 35 35 34 31 31
41 41 41 41 40 39 38 38 37 37 37 37 37 37 38 38 36 35 34 33 30 29

GFSNIL_sfc_30mbdewp_102.txt.gz
Dewpoint
60 59 59 59 58 58 59 60 60 60 61 60 60 60 59 59 58 57 55 54 51 50
61 60 59 59 59 58 58 60 60 60 60 60 60 60 59 57 57 54 53 52 51 49
56 58 60 61 60 60 60 60 59 59 60 60 59 59 57 55 52 51 50 49 49 48
47 49 52 55 58 58 58 58 58 58 56 55 54 54 53 51 49 47 46 47 47 47
46 46 48 50 53 56 55 55 54 53 53 52 51 49 48 46 45 45 45 44 45 45
45 45 46 47 50 51 53 51 49 49 48 47 46 45 45 45 45 43 43 43 43 43
45 44 44 45 46 48 49 48 45 45 45 44 44 43 43 43 42 42 42 42 42 43
44 44 44 44 44 45 46 46 45 43 42 42 42 42 42 41 41 41 41 41 42 42
41 43 43 43 43 43 43 43 43 42 41 41 41 41 42 41 40 40 40 40 40 39
42 42 42 43 43 42 42 42 41 41 40 40 40 40 41 41 40 40 40 40 39 38
41 42 42 42 42 42 42 41 41 40 40 40 40 40 41 41 40 40 39 39 39 38
41 41 42 42 42 42 42 41 41 41 40 40 40 41 41 42 40 40 40 40 39 38
40 41 41 42 42 42 42 41 41 41 41 40 40 42 42 42 39 39 39 39 39 39
39 40 40 41 41 42 42 42 41 41 41 40 40 40 42 42 39 38 38 38 37 36

GFSNIL_sfc_30mbdewp_105.txt.gz
Dewpoint
60 59 59 59 59 59 59 60 60 60 61 61 60 60 60 59 58 58 57 56 55 53
60 60 59 59 59 58 58 59 59 59 60 60 60 60 59 59 58 57 57 56 55 52
58 59 60 60 59 59 59 58 59 60 60 60 60 60 59 58 58 56 55 54 53 51
47 49 52 54 58 60 59 59 59 59 59 59 59 59 58 58 55 55 54 52 51 49
46 46 48 50 53 56 56 56 57 57 57 56 56 55 56 54 53 53 51 49 48 47
45 44 45 46 48 50 52 52 52 52 52 52 52 51 51 50 49 49 48 46 46 45
43 44 44 44 44 46 47 49 47 47 47 48 47 46 46 46 47 47 46 46 44 44
41 43 43 43 43 44 44 45 46 44 44 44 44 44 44 45 45 45 44 44 45 44
42 42 42 43 43 43 43 43 43 43 42 42 42 42 43 42 42 42 42 42 42 43
41 41 42 42 42 42 42 42 42 41 41 40 41 41 42 43 41 41 41 41 41 40
40 41 41 41 41 42 42 41 41 41 41 40 40 41 41 42 41 40 40 40 40 39
39 40 40 40 41 41 41 41 41 41 41 40 40 41 42 41 40 39 39 39 40 39
39 39 39 39 40 40 40 42 42 41 41 41 40 40 42 42 40 39 39 39 39 40
38 38 38 38 39 39 39 40 41 41 41 41 41 41 42 43 41 39 39 39 39 39

GFSNIL_sfc_30mbdewp_108.txt.gz
Dewpoint
59 59 59 59 59 59 59 59 60 60 60 60 60 59 59 59 59 58 58 57 55 54
59 59 58 59 60 59 59 60 60 60 60 60 60 60 59 59 58 58 58 57 56 55
58 59 59 59 59 59 59 59 59 59 59 59 59 60 59 59 59 57 57 56 56 55
47 49 52 54 58 59 59 59 58 59 59 59 59 59 59 59 58 57 57 55 55 54
45 45 47 48 50 53 54 55 56 56 57 57 57 57 58 58 57 56 56 55 54 53
44 44 44 44 45 47 49 51 51 51 52 53 54 54 54 54 54 54 54 53 52 52
42 43 43 43 44 44 45 46 48 47 47 48 48 48 49 49 50 50 50 50 50 49
42 42 42 42 43 43 43 43 44 45 44 44 44 45 45 46 46 47 47 47 47 47
40 41 41 42 42 42 42 42 42 42 42 42 42 42 43 44 44 44 45 45 45 45
40 40 40 41 41 41 41 41 41 41 41 41 41 41 42 43 43 42 42 43 43 43
39 39 40 40 40 40 40 40 41 41 41 41 41 41 42 42 42 41 41 41 41 41
38 39 38 38 38 39 39 38 40 41 41 40 40 41 41 42 41 40 39 40 40 40
37 36 37 37 37 38 37 37 39 39 41 42 42 42 42 42 42 40 39 39 39 40
35 35 36 36 37 38 38 38 36 34 37 38 40 40 42 42 42 41 40 39 39 39

GFSNIL_sfc_30mbdewp_114.txt.gz
Dewpoint
59 57 58 58 59 58 58 59 60 60 60 60 60 60 59 59 59 59 58 58 58 57
58 58 58 59 59 59 58 59 59 59 59 60 60 59 59 58 58 58 58 58 58 57
56 58 58 59 58 59 59 59 59 59 59 59 59 59 59 58 58 58 58 58 58 57
47 48 49 51 52 54 55 55 55 56 58 58 58 58 58 58 58 58 58 58 57 57
43 43 44 44 45 46 47 48 48 48 49 50 51 52 53 53 54 54 55 56 56 56
41 42 42 42 43 43 43 43 44 45 45 45 45 46 47 47 48 49 50 51 52 52
40 41 41 41 41 42 42 42 42 42 42 42 42 43 43 43 43 44 45 46 47 48
40 40 40 40 40 40 40 41 41 41 41 41 41 42 43 43 42 42 42 43 44 45
39 38 38 38 38 38 38 38 38 38 38 38 40 42 44 44 42 41 41 41 41 42
37 37 37 37 36 37 37 36 36 37 37 36 37 41 42 43 42 41 40 40 40 40
34 35 35 35 35 36 36 36 36 36 37 36 36 39 40 41 41 40 40 40 40 40
33 32 32 32 33 34 33 33 34 35 36 35 36 38 39 39 39 39 39 39 41 41
32 32 31 32 32 33 32 32 32 33 34 34 33 35 34 34 35 35 36 37 37 38
29 29 30 30 31 31 31 31 30 29 29 31 31 30 30 30 30 31 32 32 35 36

GFSNIL_sfc_30mbdewp_117.txt.gz
Dewpoint
58 58 58 58 58 59 59 59 60 60 60 60 60 60 60 59 59 59 59 59 58 58
58 59 57 58 59 59 59 59 59 60 59 59 59 59 59 59 58 59 58 58 58 58
51 54 56 56 57 58 58 59 59 59 59 59 59 59 59 58 58 58 58 58 58 58
47 47 47 49 50 51 51 51 52 53 53 55 56 56 57 58 58 57 58 58 57 57
44 45 44 44 45 45 46 46 46 47 46 47 48 49 50 50 51 51 51 52 52 53
41 41 42 42 42 42 42 42 42 42 42 42 43 43 43 44 44 45 45 46 47 48
39 40 39 39 40 40 41 41 41 41 41 41 42 43 43 43 42 42 42 43 44 44
38 38 38 38 38 38 38 38 38 38 38 39 40 43 43 43 42 41 41 42 42 42
37 37 36 37 37 37 37 37 37 37 37 36 37 41 41 42 40 40 39 39 40 41
34 34 35 35 35 35 35 36 36 36 36 36 37 39 39 40 40 40 39 39 39 39
32 31 32 32 33 33 32 33 33 34 35 34 35 37 36 36 37 37 37 38 37 38
32 30 30 30 32 32 32 32 33 33 31 33 32 33 32 31 30 30 31 31 33 35
29 29 28 29 30 31 31 31 31 28 30 31 29 29 30 31 29 28 28 28 28 30
28 28 28 28 29 29 29 28 27 27 27 28 27 27 29 30 30 29 28 28 28 28

GFSNIL_sfc_30mbdewp_120.txt.gz
Dewpoint
57 57 57 57 58 58 58 59 60 60 60 60 60 59 59 59 59 59 58 57 57 56
55 57 57 57 58 58 59 59 60 60 60 60 60 59 59 59 58 58 58 58 58 58
50 53 57 57 57 57 57 57 56 58 59 59 59 59 59 58 59 58 58 58 58 58
47 47 48 49 49 49 50 50 50 51 51 52 53 55 57 57 57 57 57 57 57 57
45 45 45 45 45 46 46 46 46 46 45 46 47 47 48 48 48 49 49 49 50 50
41 42 42 42 42 43 43 43 43 43 43 42 43 43 43 43 43 44 44 44 44 44
39 38 39 39 38 38 39 38 38 39 40 41 42 42 42 42 42 42 42 42 42 42
36 36 36 36 36 36 36 36 36 35 36 38 39 40 40 39 38 38 38 38 39 39
35 34 35 35 35 35 36 36 36 36 36 37 37 39 39 39 37 37 37 36 37 37
31 31 32 32 31 31 32 33 34 34 34 35 36 36 36 36 36 37 36 36 35 34
29 29 30 30 31 31 32 32 32 32 31 32 33 34 33 31 30 30 31 30 30 30
29 27 28 28 30 31 31 31 29 28 31 30 28 31 32 30 28 27 27 28 28 28
28 26 27 28 29 30 29 29 27 27 29 28 26 30 31 30 28 28 28 27 28 28
27 27 27 27 28 28 27 25 24 24 25 25 26 28 30 30 28 28 27 26 26 26

GFSNIL_sfc_30mbdewp_123.txt.gz
Dewpoint
51 53 54 55 56 57 56 58 59 60 60 60 60 60 60 60 60 60 58 58 57 57
53 53 54 56 56 57 58 59 59 59 58 59 60 59 60 59 59 58 58 58 57 57
51 52 56 57 57 56 56 58 57 56 58 59 60 60 59 59 58 57 57 57 58 58
47 47 49 50 50 50 50 50 51 50 50 50 51 53 54 54 56 57 57 57 57 56
45 45 45 45 46 47 47 47 47 47 46 46 46 47 48 48 48 48 47 47 48 48
42 43 43 44 44 44 45 46 46 45 45 44 44 44 44 44 44 44 45 45 45 45
39 41 41 41 41 42 41 40 40 41 42 42 40 40 40 40 40 40 41 41 41 42
37 36 36 38 36 36 36 35 35 36 37 38 39 39 39 38 37 37 36 37 37 38
33 34 33 33 33 34 35 35 35 35 37 37 36 37 37 38 36 36 36 36 36 35
29 29 30 30 30 31 32 32 33 32 34 34 35 35 33 34 34 34 33 32 31 30
28 28 29 30 31 31 32 32 30 30 31 32 31 33 33 32 30 29 28 28 28 28
27 27 28 29 30 30 31 30 28 30 30 28 29 32 32 31 28 27 28 28 28 28
27 26 27 28 29 29 28 26 26 27 28 27 26 31 31 31 27 26 26 26 26 27
27 27 26 28 28 27 25 24 23 23 24 24 26 29 30 30 28 27 26 25 24 25

GFSNIL_sfc_30mbdewp_126.txt.gz
Dewpoint
45 46 49 52 54 55 56 57 58 58 59 60 61 60 61 60 60 60 60 59 59 58
51 51 51 52 53 54 56 57 56 57 58 59 59 60 60 60 60 60 60 59 59 58
48 49 52 55 54 55 55 57 56 55 54 56 58 59 59 59 59 59 58 58 57 57
46 46 47 48 49 50 50 49 50 49 49 49 49 52 53 52 55 57 55 55 56 54
44 44 44 45 46 48 47 47 47 47 46 47 47 47 48 48 48 48 48 48 48 47
42 42 43 43 44 44 46 46 46 46 46 45 46 46 46 46 46 46 45 45 45 44
41 41 42 42 43 43 43 43 43 44 44 43 42 42 40 39 39 40 40 40 41 38
40 40 41 41 40 41 39 37 38 38 38 39 38 39 38 37 37 37 37 37 37 36
33 32 32 32 34 35 35 35 36 37 36 36 36 35 37 37 36 36 35 34 33 34
29 30 30 31 32 32 33 33 32 34 34 33 34 34 34 34 32 32 31 30 30 28
29 30 30 31 32 32 32 30 29 32 33 31 32 33 34 33 30 29 28 28 28 28
27 28 29 30 30 31 31 28 29 31 29 29 31 32 32 32 28 27 27 27 27 28
27 27 28 29 29 29 28 26 27 28 27 27 30 31 31 31 29 27 27 26 26 28
28 27 28 28 28 27 26 24 23 24 24 25 27 30 30 30 30 28 28 26 25 26

GFSNIL_sfc_30mbdewp_129.txt.gz
Dewpoint
44 44 44 46 50 52 53 55 56 57 58 59 59 60 60 59 59 59 59 59 59 59
49 51 52 52 51 52 53 55 56 57 57 58 59 60 60 60 59 59 59 58 59 58
47 48 49 51 52 53 54 55 54 54 54 53 53 55 59 59 59 59 59 59 59 58
45 45 46 47 49 50 50 50 50 49 49 49 49 50 52 52 54 57 56 56 57 52
43 44 44 44 45 48 47 47 47 47 46 47 47 47 48 48 48 48 48 48 48 48
42 42 42 43 43 44 46 46 45 45 44 44 44 44 45 46 46 45 46 46 45 44
41 42 42 43 43 42 43 43 43 43 43 42 42 42 42 42 43 42 42 41 39 39
39 40 40 40 41 41 41 41 41 39 38 39 40 41 39 38 37 37 36 36 36 37
32 31 31 33 35 34 34 36 37 36 35 35 35 37 37 36 35 34 33 32 31 34
30 30 31 32 32 33 32 32 34 33 32 33 34 36 36 34 32 31 30 29 29 31
29 30 31 32 32 32 30 29 32 33 31 31 33 34 35 32 29 29 29 29 28 29
28 29 30 29 30 31 29 28 30 30 29 28 31 33 33 30 28 27 27 27 27 28
27 28 28 29 29 29 28 27 28 28 26 29 29 31 32 31 28 27 27 26 26 30
27 27 28 28 29 28 26 25 25 25 26 25 28 29 30 30 29 29 29 28 27 27

GFSNIL_sfc_30mbdewp_132.txt.gz
Dewpoint
49 47 45 45 46 48 50 52 54 55 56 57 58 58 59 59 59 59 59 59 59 58
47 48 50 52 52 51 51 54 55 55 56 57 57 58 58 58 58 58 57 58 59 58
46 46 47 49 50 51 53 54 53 53 53 53 53 54 56 58 59 58 58 59 58 58
44 45 45 46 48 49 50 50 51 50 50 50 50 51 52 52 52 54 56 56 57 54
42 43 43 44 44 47 47 47 47 47 46 46 46 47 47 47 48 48 47 47 48 48
42 42 42 43 43 43 44 45 45 44 44 43 43 43 44 45 45 45 44 43 43 43
40 41 41 42 42 42 43 42 42 41 41 42 41 41 41 42 42 42 40 41 39 39
34 38 38 39 40 41 41 41 40 38 39 40 41 41 40 39 38 38 38 38 38 39
31 30 32 34 34 34 36 36 35 34 34 35 38 39 37 35 34 33 32 32 33 33
30 30 31 32 33 32 32 34 32 31 32 33 35 36 35 33 31 30 29 29 31 31
29 30 31 31 31 31 29 31 33 31 30 32 34 35 33 32 30 29 29 29 28 30
28 29 29 29 30 30 28 29 30 30 28 29 31 34 33 29 27 27 26 26 28 29
28 28 28 28 28 30 27 27 29 27 27 29 29 31 33 29 27 27 27 27 26 30
28 27 28 28 28 28 27 25 25 26 26 26 28 29 30 31 28 28 28 27 27 27

GFSNIL_sfc_30mbdewp_135.txt.gz
Dewpoint
47 47 48 50 50 47 47 48 51 53 54 55 56 57 57 57 58 58 58 58 59 59
46 46 46 48 49 51 52 53 54 55 55 56 56 57 57 56 56 58 58 57 57 57
44 45 45 46 47 49 50 51 52 52 52 52 53 54 56 57 58 58 57 58 58 58
43 44 44 44 45 47 49 49 50 49 49 49 49 50 51 50 51 53 53 53 54 54
42 42 42 43 44 44 46 46 47 46 46 46 46 47 48 48 48 48 47 47 47 46
41 42 42 42 43 43 43 43 43 43 43 43 43 44 44 44 44 43 43 42 42 42
37 39 39 41 41 42 42 41 41 41 42 41 41 41 41 42 41 40 40 40 40 40
33 34 35 37 38 40 41 39 39 39 39 41 41 40 39 39 38 38 38 38 38 38
32 30 31 33 33 35 36 34 34 34 35 36 37 38 37 35 34 34 34 33 32 32
29 29 30 32 32 32 33 32 30 31 33 34 36 36 34 33 31 30 31 32 32 32
28 29 30 31 31 31 30 32 30 29 31 33 35 34 33 32 29 29 29 29 30 30
28 28 29 29 30 30 28 30 31 29 28 29 32 34 32 29 27 26 26 28 29 29
29 28 27 28 28 30 28 27 29 28 28 29 30 33 31 28 27 26 26 26 28 31
30 28 28 28 28 28 27 26 27 27 26 28 27 30 32 31 27 26 26 27 27 27

GFSNIL_sfc_30mbdewp_138.txt.gz
Dewpoint
45 46 46 47 48 49 50 51 52 51 52 53 54 55 55 55 56 56 56 56 58 58
44 45 45 46 47 49 49 51 52 52 53 54 55 55 56 55 55 55 55 56 57 58
43 43 44 45 45 46 48 49 51 50 50 50 51 52 53 53 53 54 55 56 57 57
42 42 43 44 44 45 47 47 48 48 47 47 48 48 49 49 50 51 51 51 51 49
42 42 42 42 43 44 44 45 45 45 44 44 45 46 46 46 46 46 46 46 46 46
38 38 40 41 41 43 43 43 43 43 42 42 42 43 44 43 42 42 42 42 43 42
37 35 37 38 39 41 42 41 41 41 41 41 41 41 41 40 40 39 40 40 39 37
35 32 31 34 35 37 38 38 37 38 39 40 40 40 38 38 38 38 38 37 37 37
32 30 30 32 33 34 34 32 33 34 35 36 37 38 37 35 35 35 34 32 31 32
29 29 28 30 32 31 32 30 29 31 33 34 35 35 34 33 32 32 32 31 31 31
29 28 28 29 30 31 30 31 29 28 31 32 35 34 33 32 29 29 29 31 30 31
30 28 28 29 29 29 28 29 30 29 27 28 32 34 33 29 27 26 27 29 29 30
31 29 27 27 28 29 28 26 29 29 27 28 29 33 32 28 26 25 26 28 30 31
31 29 28 27 27 27 28 26 27 27 26 27 28 29 33 31 26 26 26 26 26 27